Home > Weather > Qaanaaq > Past weeks

Flag for Greenland Past Weather in Qaanaaq, Greenland — Yesterday and Last 2 Weeks

Now
39 °F

Clear.


Feels Like: 32 °F
Forecast: 35 / 41 °F
Wind: 12 mph from East

Location: Thule A. B.

Current Time: Aug 27, 2016 at 4:40:49 AM

Latest Report: Aug 27, 2016 at 3:58 AM


Visibility: N/A

Pressure: 29.94 "Hg

Humidity: 81%

Dew Point: 34 °F

Location of QaanaaqLocation

Past Weather in Qaanaaq — Graph

°F

Qaanaaq Temperature Yesterday

Maximum temperature yesterday: 45 °F (at 12:58 AM)
Minimum temperature yesterday: 41 °F (at 4:58 AM)
Average temperature yesterday: 43 °F

High & Low Weather Summary for the Past Weeks

 TemperatureHumidityPressure
High51 °F (Aug 23, 5:58 PM)93% (Aug 19, 1:58 AM)29.99 "Hg (Aug 19, 1:58 AM)
Low36 °F (Aug 16, 3:58 AM)39% (Aug 17, 12:58 AM)29.49 "Hg (Aug 18, 3:58 PM)
Average42 °F77%29.75 "Hg
* Reported Aug 12 7:58 AM — Aug 27 2:58 AM, Qaanaaq, Weather by CustomWeather, © 2016

Note: Actual official high and low records may vary slightly from our data, if they occured in-between our weather recording intervals... More about our weather records

Advertising

Qaanaaq Weather History for the Previous 24 Hours

Scroll right to see more
 ConditionsComfort  
Time TempWeatherWind HumidityBarometerVisibility
2:58 AM
Sat, Aug 27
37 °FClear.5 mph87%29.94 "HgN/A
1:58 AM39 °FClear.5 mph87%29.93 "HgN/A
12:58 AM41 °FSunny.6 mph87%29.92 "HgN/A
11:58 PM
Fri, Aug 26
43 °FSunny.6 mph81%29.92 "HgN/A
10:58 PM43 °FSunny.No wind81%29.91 "HgN/A
9:58 PM45 °FOvercast.No wind71%29.91 "HgN/A
8:58 PM45 °FPartly sunny.3 mph76%29.90 "HgN/A
7:58 PM43 °FPartly sunny.3 mph81%29.90 "HgN/A
6:58 PM45 °FOvercast.3 mph76%29.88 "HgN/A
5:58 PM43 °FPartly sunny.No wind81%29.87 "HgN/A
4:58 PM43 °FPartly sunny.3 mph81%29.87 "HgN/A
3:58 PM45 °FPartly sunny.1 mph76%29.87 "HgN/A
2:58 PM45 °FPartly sunny.3 mph76%29.86 "HgN/A
1:58 PM45 °FPartly sunny.3 mph81%29.86 "HgN/A
12:58 PM45 °FPartly sunny.No wind76%29.86 "HgN/A
11:58 AM45 °FPartly sunny.No wind76%29.85 "HgN/A
10:58 AM42 °FPartly sunny.2 mph80%29.85 "HgN/A
9:58 AM42 °FBroken clouds.3 mph83%29.85 "HgN/A
8:58 AM43 °FOvercast.2 mph81%29.84 "HgN/A
7:58 AM43 °FPartly sunny.3 mph81%29.83 "HgN/A
6:58 AM41 °FOvercast.3 mph87%29.83 "HgN/A
5:58 AM41 °FPassing clouds.3 mph81%29.82 "HgN/A
4:58 AM41 °FOvercast.5 mph81%29.82 "HgN/A
Weather by CustomWeather, © 2016

See weather overviewHow to use our weather pages